Back to catalog

THORAD DELTA 1 DEB

AliveSSO
NORAD 8311·DEBRIS·🇺🇸 United States

Launched Nov 15, 1974 from Vandenberg Space Force Base

Loading…

Next Passes (next 24 hours)

TLE

FreshSource: Space-Track

Epoch: Sep 14, 2026, 08:48 UTC

1 08311U 74089BU  26257.36734998 -.00000040  00000-0  45758-4 0  9990
2 08311 102.1724 232.6071 0036222 202.5433 329.3951 12.45553855356332

Track THORAD DELTA 1 DEB in real time with AllMySat

Download on the App Store